Wind_Speed
11 11 11 11 10 10 11 11 10 9 9 10 10 11 13 16 18 19 20 22 27 32 33 34 35 37 41 41 42 44 43 43 43 42 42 43 44 45 45 43 43 42 43 44
11 10 10 10 10 9 9 9 8 8 8 8 8 8 10 12 15 16 18 19 21 25 29 30 31 32 35 38 39 39 40 42 43 44 45 44 43 43 44 44 42 41 42 43
9 9 9 10 10 10 8 8 7 8 7 6 6 7 9 10 10 13 15 15 17 20 23 26 28 28 32 35 37 37 38 40 42 42 43 42 41 41 43 43 43 40 41 41
9 9 10 10 10 9 8 8 7 7 7 6 6 7 8 8 8 10 13 13 14 17 19 20 22 24 26 29 32 33 34 36 37 40 40 39 38 40 39 39 40 40 40 40
9 10 9 10 10 9 9 8 7 6 6 6 6 6 7 8 9 11 12 13 13 14 14 16 18 18 20 23 27 29 31 31 31 34 36 36 35 37 38 38 38 39 39 39
10 10 10 11 11 10 9 7 7 7 6 6 5 6 7 7 9 10 10 11 11 10 10 12 14 16 17 19 23 26 29 29 29 30 32 33 34 35 37 38 37 37 38 38
11 10 11 12 12 11 9 8 7 7 6 6 5 4 6 7 8 8 9 9 8 9 9 10 12 14 14 16 20 22 24 26 28 29 29 32 33 34 36 37 37 37 38 38
11 10 11 12 12 11 10 9 8 7 6 6 6 6 7 7 8 8 8 7 7 8 9 8 9 11 11 12 15 18 19 21 24 26 27 30 33 34 34 35 36 37 39 38
11 12 12 12 12 10 10 9 7 6 6 7 7 6 7 8 7 7 6 7 7 7 7 7 7 8 9 9 11 13 16 18 21 22 24 27 30 32 33 34 36 37 38 38
12 12 12 12 11 11 10 9 7 6 5 6 6 6 6 8 8 7 6 5 5 6 6 6 6 7 8 9 9 10 12 16 18 20 23 25 27 30 31 33 35 36 36 38
12 12 12 11 10 10 9 9 8 6 5 5 6 7 7 7 7 6 5 4 4 5 4 4 4 6 7 8 9 10 12 14 17 20 22 24 25 27 30 33 35 37 39 40
12 12 11 11 10 10 9 8 7 6 5 4 5 6 6 7 7 6 6 5 4 4 3 2 4 6 8 9 10 12 13 15 17 19 21 23 25 27 29 32 34 37 39 41
12 12 12 11 9 8 7 7 6 5 5 5 5 6 7 7 7 6 5 3 3 3 2 2 4 6 8 9 10 11 13 16 17 19 21 23 25 27 29 30 33 35 37 39
12 12 11 10 8 7 6 5 5 5 5 5 6 6 7 6 5 5 4 3 2 2 1 2 5 6 7 8 10 11 13 15 17 20 22 24 26 28 29 30 31 33 35 37
11 11 10 8 7 7 5 5 4 5 5 6 6 6 6 5 5 4 3 2 1 0 2 4 6 6 7 8 9 11 13 15 17 19 22 24 26 27 28 29 30 32 34 36
11 10 9 8 7 5 5 5 5 5 6 6 7 6 5 5 4 3 2 0 1 3 4 5 6 6 7 8 9 11 12 15 16 19 21 23 25 26 26 28 29 32 34 36
10 9 8 7 6 6 6 5 4 5 6 6 7 6 5 4 3 2 1 2 3 4 4 5 5 6 7 8 9 11 14 16 18 20 21 21 23 23 25 26 29 31 34 36
10 9 7 7 6 6 6 5 5 6 6 6 6 6 5 4 2 1 1 3 4 5 5 6 7 8 9 10 11 13 15 17 19 21 21 22 23 24 25 28 29 31 33 35
11 10 8 7 6 6 6 5 5 5 5 5 5 4 3 2 1 1 2 3 5 6 7 8 9 10 11 12 14 15 17 19 21 21 22 23 24 26 27 29 29 30 31 32
12 11 10 8 7 7 6 6 5 5 5 4 4 3 2 1 1 2 3 4 5 6 8 10 10 11 13 14 16 18 20 21 22 22 23 25 26 27 28 29 29 30 31 32
13 12 11 10 10 9 8 7 5 5 5 5 4 3 3 3 3 3 4 5 6 8 10 11 12 14 15 17 18 20 21 22 23 24 25 27 28 28 29 28 29 30 31 31
14 14 13 12 12 11 9 8 7 6 6 6 6 5 4 4 5 5 6 7 9 11 12 13 15 16 18 19 21 22 23 24 25 26 27 28 29 29 29 29 29 30 31 31
16 15 15 14 13 13 12 10 9 8 8 7 7 6 6 6 7 7 8 9 11 12 14 16 17 18 20 22 23 25 25 25 26 27 29 29 30 30 30 30 31 31 32 32
18 18 17 17 16 16 14 13 12 11 10 10 9 8 8 8 9 10 11 12 13 15 16 17 19 20 22 23 25 26 27 27 27 28 29 30 30 30 31 32 32 32 33 32
20 20 20 19 18 18 17 16 14 14 13 13 12 12 11 11 12 13 14 15 16 17 18 20 21 22 23 25 27 28 28 28 29 30 30 30 30 31 31 31 32 33 33 32
22 22 22 22 21 20 19 18 17 16 16 15 15 15 14 14 15 16 16 17 19 20 21 22 23 25 26 28 29 30 30 30 31 31 31 31 32 32 32 33 33 34 34 34
Wind_Direction
229 229 230 229 227 221 222 217 215 217 223 224 225 223 228 231 231 226 223 223 224 223 223 224 224 225 226 227 229 229 225 226 227 229 227 230 232 235 237 238 239 241 243 244
226 224 218 217 215 206 206 208 201 201 203 198 204 208 221 223 223 222 224 224 223 221 222 224 226 228 226 227 226 226 226 228 229 228 229 233 234 234 234 236 237 240 242 245
214 209 203 200 196 189 194 192 184 189 191 189 197 196 200 211 216 218 217 218 218 219 223 227 227 228 227 225 224 226 228 229 229 229 229 231 232 233 235 239 239 239 242 244
194 192 192 190 183 179 180 181 176 177 185 194 203 197 197 203 205 207 208 207 212 217 224 226 224 226 225 224 223 223 225 226 229 230 230 229 232 231 233 236 239 241 243 246
183 184 186 182 172 165 165 169 171 176 187 191 193 201 189 191 193 193 202 206 208 211 216 223 225 224 220 221 220 223 225 227 228 229 229 231 234 235 236 239 241 242 243 247
174 177 178 173 169 164 162 164 162 164 171 186 180 190 185 186 185 190 193 196 201 202 209 215 215 217 221 222 223 227 228 229 229 231 235 236 238 239 239 241 242 244 246 248
170 170 165 164 164 168 167 163 153 152 158 158 153 161 160 162 168 173 172 172 176 182 193 203 209 214 219 224 225 228 231 233 234 236 238 240 240 240 242 243 245 248 248 250
165 164 159 156 156 157 161 159 152 146 142 141 142 143 141 148 150 150 152 155 157 167 183 196 208 214 221 221 222 227 232 234 235 235 236 242 242 244 246 247 249 252 253 255
162 161 159 157 157 155 156 160 155 147 132 132 131 130 136 139 138 143 147 159 161 165 171 181 195 210 219 225 229 236 235 235 235 237 241 245 247 250 252 254 255 256 258 258
161 160 161 160 159 159 157 155 158 156 148 140 133 135 134 143 142 149 150 151 161 162 169 179 202 223 236 235 239 243 245 243 243 246 253 254 253 256 257 259 259 258 259 261
159 159 161 163 161 163 166 165 162 157 150 141 133 136 131 142 145 145 150 150 149 160 170 188 218 241 252 249 251 253 253 252 255 258 261 261 261 260 259 260 262 261 261 262
159 158 159 161 159 160 165 167 170 172 168 163 153 143 138 141 148 150 150 144 141 158 168 212 248 249 256 257 257 257 257 262 265 265 264 264 265 265 265 265 264 263 264 265
165 164 163 160 158 157 157 163 170 177 181 179 170 154 143 141 147 151 154 153 148 165 184 250 280 272 268 265 263 264 266 270 269 270 270 270 270 269 269 269 268 267 267 268
166 167 165 164 165 165 162 164 171 175 175 169 162 154 149 141 139 145 153 145 138 184 234 296 310 297 287 287 283 282 281 280 278 276 276 276 273 272 273 273 272 271 271 272
168 166 165 166 172 176 181 180 176 173 169 166 158 153 151 149 143 145 154 151 118 340 315 321 327 321 311 309 300 293 290 290 289 286 284 281 277 276 278 279 276 275 276 277
173 173 170 169 172 177 178 182 183 184 182 174 167 163 152 145 141 136 120 80 347 351 343 334 331 328 320 316 315 309 304 300 299 297 294 289 283 280 281 283 280 280 280 280
180 178 180 181 182 176 170 165 167 171 169 165 167 170 167 155 140 125 85 19 8 7 10 2 348 339 336 326 326 322 317 313 309 305 300 296 291 286 284 284 284 285 284 283
188 189 193 193 193 189 175 166 156 152 151 153 159 162 157 146 126 72 21 4 6 11 9 359 353 346 338 334 333 330 326 322 319 315 308 302 296 290 289 288 288 288 286 285
201 203 205 205 204 189 181 174 169 165 157 151 156 157 153 153 170 357 352 348 350 351 352 348 345 340 337 333 329 325 323 322 321 319 316 311 305 299 296 294 291 292 291 289
213 212 212 213 212 202 192 190 188 183 182 174 171 179 194 231 285 306 313 319 325 331 336 338 338 336 331 328 325 323 320 320 320 320 319 316 312 307 302 299 295 294 293 291
217 217 218 218 217 211 207 209 208 206 202 206 210 221 247 271 291 296 300 307 312 318 322 326 328 329 327 325 322 321 319 318 317 317 317 316 314 311 308 303 300 298 296 294
221 222 222 222 224 225 221 224 226 226 222 224 230 241 257 273 288 297 302 306 308 312 315 317 320 322 323 322 322 320 318 316 314 314 314 314 314 313 309 305 303 300 298 297
227 227 228 230 231 232 232 231 232 232 233 234 239 248 259 272 286 296 301 304 308 311 313 314 316 318 320 321 321 320 318 315 314 312 311 311 312 310 307 305 303 301 299 297
231 232 233 234 235 236 235 235 237 240 242 245 250 256 264 273 282 291 296 299 302 306 311 314 316 317 317 318 318 318 317 315 314 314 313 312 311 309 307 306 304 302 301 300
234 235 236 237 239 239 240 240 242 245 246 250 254 258 265 274 281 289 294 297 300 302 306 310 313 315 316 317 317 317 316 314 314 313 313 313 311 308 307 306 305 303 303 301
237 238 238 237 238 239 240 242 244 247 250 252 256 259 265 272 279 286 291 295 298 301 303 306 309 311 312 313 315 315 313 313 313 312 312 311 310 308 307 306 306 304 302 301
Height
5645 5647 5648 5649 5650 5651 5651 5652 5653 5653 5653 5654 5655 5657 5658 5659 5661 5663 5666 5669 5672 5676 5680 5684 5690 5694 5699 5704 5710 5715 5721 5727 5733 5738 5744 5748 5753 5757 5762 5766 5769 5772 5775 5778
5644 5645 5646 5646 5647 5649 5649 5650 5651 5652 5652 5653 5654 5655 5656 5657 5659 5661 5664 5666 5669 5672 5676 5680 5684 5688 5693 5697 5702 5707 5713 5719 5725 5731 5736 5741 5745 5749 5753 5757 5760 5763 5767 5769
5641 5643 5643 5645 5646 5647 5648 5650 5650 5651 5651 5652 5654 5655 5655 5656 5657 5659 5662 5664 5667 5669 5673 5676 5680 5684 5687 5691 5696 5701 5706 5712 5718 5722 5727 5733 5736 5740 5745 5748 5752 5755 5759 5761
5639 5641 5643 5644 5645 5647 5648 5649 5650 5650 5651 5652 5653 5654 5655 5655 5656 5658 5661 5663 5665 5667 5671 5673 5676 5679 5683 5687 5691 5695 5700 5705 5710 5716 5721 5725 5730 5734 5738 5741 5744 5747 5750 5753
5639 5641 5642 5644 5645 5646 5648 5649 5649 5650 5651 5652 5652 5652 5654 5654 5655 5657 5659 5661 5663 5666 5668 5671 5674 5677 5679 5683 5687 5691 5696 5700 5704 5709 5714 5718 5722 5726 5730 5733 5736 5739 5741 5743
5639 5640 5642 5644 5645 5647 5648 5649 5650 5650 5651 5652 5652 5652 5653 5653 5655 5657 5659 5660 5662 5664 5666 5669 5672 5675 5677 5680 5684 5687 5691 5695 5699 5703 5707 5712 5716 5719 5722 5725 5728 5730 5732 5734
5639 5641 5642 5644 5646 5647 5649 5651 5651 5651 5651 5652 5652 5652 5653 5653 5654 5656 5658 5660 5661 5663 5665 5667 5670 5673 5675 5677 5679 5683 5686 5689 5693 5697 5701 5705 5709 5711 5714 5717 5720 5722 5723 5725
5639 5642 5643 5645 5646 5648 5649 5651 5652 5652 5652 5652 5652 5651 5653 5653 5654 5656 5657 5659 5660 5662 5664 5666 5668 5671 5673 5674 5676 5679 5682 5685 5688 5691 5694 5697 5701 5703 5706 5709 5711 5713 5715 5716
5640 5642 5644 5645 5647 5649 5650 5651 5652 5653 5652 5652 5652 5652 5653 5653 5654 5656 5657 5658 5659 5661 5663 5665 5666 5669 5671 5672 5674 5675 5677 5679 5682 5685 5688 5690 5693 5696 5698 5699 5702 5703 5704 5706
5640 5643 5645 5647 5648 5649 5651 5652 5653 5653 5653 5652 5652 5652 5653 5653 5655 5655 5657 5658 5659 5660 5662 5664 5665 5667 5668 5669 5670 5671 5672 5674 5676 5679 5681 5683 5685 5687 5689 5690 5691 5693 5694 5695
5641 5644 5646 5647 5649 5650 5652 5653 5653 5653 5653 5653 5652 5655 5653 5653 5654 5655 5656 5658 5659 5660 5661 5662 5663 5664 5664 5665 5665 5666 5667 5668 5670 5672 5673 5674 5676 5678 5679 5681 5682 5683 5684 5684
5642 5645 5646 5648 5649 5650 5651 5652 5653 5654 5654 5653 5653 5657 5653 5654 5654 5655 5656 5657 5658 5658 5659 5660 5661 5661 5661 5661 5661 5661 5662 5663 5664 5665 5665 5666 5667 5668 5669 5670 5670 5671 5672 5672
5643 5646 5647 5649 5652 5652 5652 5652 5653 5653 5653 5653 5653 5657 5654 5654 5654 5655 5655 5656 5656 5657 5658 5658 5658 5657 5657 5656 5656 5657 5657 5657 5657 5657 5657 5658 5658 5659 5659 5659 5659 5659 5660 5659
5644 5646 5649 5651 5651 5651 5652 5653 5653 5653 5652 5652 5653 5654 5654 5654 5654 5654 5654 5655 5655 5655 5655 5655 5654 5653 5652 5651 5651 5651 5651 5650 5650 5650 5649 5649 5649 5649 5649 5649 5648 5648 5648 5647
5645 5647 5649 5650 5651 5651 5652 5652 5652 5652 5652 5652 5653 5653 5653 5653 5654 5654 5654 5654 5654 5654 5653 5652 5651 5650 5648 5647 5646 5646 5645 5645 5643 5642 5641 5640 5640 5639 5639 5639 5638 5637 5637 5636
5646 5648 5649 5650 5650 5651 5651 5652 5652 5652 5651 5652 5652 5653 5653 5653 5653 5653 5653 5653 5652 5652 5651 5650 5649 5648 5646 5644 5643 5641 5640 5639 5637 5636 5634 5632 5631 5631 5630 5629 5628 5627 5626 5625
5646 5648 5649 5650 5651 5651 5652 5652 5651 5651 5651 5651 5651 5653 5652 5652 5652 5652 5652 5651 5651 5650 5649 5648 5647 5645 5644 5642 5640 5638 5636 5634 5632 5630 5627 5625 5624 5622 5621 5620 5619 5617 5615 5613
5647 5648 5649 5650 5651 5651 5654 5651 5651 5651 5651 5651 5651 5651 5651 5652 5652 5651 5651 5650 5650 5649 5647 5646 5645 5643 5641 5639 5637 5635 5633 5630 5628 5625 5622 5619 5616 5614 5613 5611 5609 5607 5604 5601
5646 5647 5648 5649 5650 5650 5652 5651 5650 5650 5651 5650 5650 5650 5650 5650 5650 5650 5650 5649 5648 5647 5646 5644 5643 5641 5639 5637 5635 5632 5629 5626 5623 5619 5616 5613 5610 5607 5605 5602 5600 5597 5594 5591
5645 5646 5648 5648 5648 5649 5652 5650 5649 5650 5650 5650 5649 5649 5649 5649 5650 5650 5648 5647 5646 5645 5644 5642 5640 5638 5636 5634 5631 5628 5625 5621 5617 5614 5610 5607 5603 5600 5596 5593 5590 5587 5584 5582
5643 5644 5645 5646 5646 5648 5649 5648 5649 5650 5650 5649 5648 5648 5648 5648 5648 5647 5646 5645 5644 5643 5641 5640 5638 5635 5633 5630 5627 5623 5620 5616 5612 5609 5605 5601 5597 5593 5588 5585 5582 5579 5576 5573
5640 5642 5643 5644 5645 5648 5646 5646 5647 5647 5646 5646 5646 5646 5646 5646 5645 5644 5643 5642 5641 5640 5638 5636 5634 5632 5629 5625 5622 5618 5614 5610 5606 5603 5599 5594 5590 5585 5581 5578 5574 5571 5567 5564
5637 5639 5640 5642 5644 5643 5643 5643 5643 5643 5643 5643 5643 5643 5643 5643 5642 5641 5640 5639 5638 5636 5634 5632 5630 5627 5624 5620 5616 5613 5608 5604 5600 5596 5592 5588 5583 5579 5575 5571 5567 5563 5559 5555
5634 5634 5636 5637 5638 5638 5639 5639 5640 5640 5640 5640 5640 5640 5640 5639 5638 5637 5636 5635 5633 5632 5630 5627 5625 5622 5618 5615 5611 5607 5602 5598 5594 5590 5586 5581 5576 5572 5568 5563 5559 5555 5551 5547
5629 5629 5631 5632 5633 5634 5634 5635 5635 5635 5636 5636 5636 5636 5635 5635 5634 5633 5631 5630 5628 5626 5624 5622 5619 5616 5612 5609 5605 5601 5596 5592 5588 5583 5579 5574 5569 5565 5561 5556 5552 5548 5544 5540
5623 5624 5625 5626 5627 5628 5629 5629 5630 5630 5630 5631 5631 5630 5630 5629 5629 5627 5626 5624 5623 5621 5618 5616 5613 5610 5606 5602 5598 5594 5589 5585 5581 5576 5572 5567 5563 5558 5553 5549 5544 5540 5536 5532